| time (UTC) | temp C | wind direction | speed KPH | gust KPH | rain 1hr cm | rain 24hr cm | rain mn cm | humidity % | barometer mb |
| 20260503194803 | 12 | 185 | 4.8 | 4.8 | 0.00 | 0.00 | 0.00 | 53 | 1019.0 |
| 20260503193802 | 15 | 190 | 4.8 | 4.8 | 0.00 | 0.00 | 0.00 | 50 | 1019.0 |
| 20260503192802 | 15 | 190 | 4.8 | 4.8 | 0.00 | 0.00 | 0.00 | 50 | 1019.0 |
| 20260503191801 | 15 | 190 | 4.8 | 4.8 | 0.00 | 0.00 | 0.00 | 50 | 1019.0 |
| 20260503190801 | 15 | 190 | 4.8 | 4.8 | 0.00 | 0.00 | 0.00 | 50 | 1019.0 |
| 20260503185800 | 15 | 190 | 4.8 | 4.8 | 0.00 | 0.00 | 0.00 | 50 | 1019.0 |
| 20260503184800 | 15 | 190 | 4.8 | 4.8 | 0.00 | 0.00 | 0.00 | 50 | 1019.0 |
| 20260503183759 | 15 | 190 | 4.8 | 4.8 | 0.00 | 0.00 | 0.00 | 50 | 1019.0 |
| 20260503182759 | 16 | 201 | 4.8 | 4.8 | 0.00 | 0.00 | 0.00 | 45 | 1019.0 |
| 20260503181758 | 17 | 201 | 4.8 | 4.8 | 0.00 | 0.00 | 0.00 | 44 | 1019.0 |
| 20260503175757 | 17 | 201 | 4.8 | 4.8 | 0.00 | 0.00 | 0.00 | 45 | 1019.0 |
| 20260503174756 | 17 | 201 | 4.8 | 4.8 | 0.00 | 0.00 | 0.00 | 45 | 1019.0 |
| 20260503173756 | 17 | 201 | 4.8 | 4.8 | 0.00 | 0.00 | 0.00 | 45 | 1019.0 |
| 20260503172756 | 19 | 176 | 4.8 | 4.8 | 0.00 | 0.00 | 0.00 | 39 | 1019.0 |
| 20260503171755 | 20 | 176 | 4.8 | 4.8 | 0.00 | 0.00 | 0.00 | 41 | 1019.0 |
| 20260503170755 | 20 | 176 | 4.8 | 4.8 | 0.00 | 0.00 | 0.00 | 41 | 1019.0 |
| 20260503150748 | 19 | 153 | 8.0 | 8.0 | 0.00 | 0.00 | 0.00 | 38 | 1019.0 |
| 20260503130740 | 19 | 153 | 8.0 | 8.0 | 0.00 | 0.00 | 0.00 | 38 | 1020.0 |
| 20260503110734 | 19 | 153 | 8.0 | 8.0 | 0.00 | 0.00 | 0.00 | 38 | 1020.0 |
| 20260503080725 | 15 | 173 | 11.3 | 11.3 | 0.00 | 0.00 | 0.00 | 54 | 1022.0 |
| 20260503072723 | 10 | 174 | 11.3 | 12.9 | 0.00 | 0.00 | 0.00 | 65 | 1022.0 |
| 20260503071722 | 10 | 174 | 11.3 | 12.9 | 0.00 | 0.00 | 0.00 | 65 | 1022.0 |
| 20260503070722 | 10 | 174 | 11.3 | 12.9 | 0.00 | 0.00 | 0.00 | 65 | 1022.0 |
| 20260503054718 | 10 | 174 | 11.3 | 14.5 | 0.00 | 0.00 | 0.00 | 65 | 1022.0 |
| 20260503053717 | 7 | 123 | 8.0 | 8.0 | 0.00 | 0.00 | 0.00 | 66 | 1022.0 |
| 20260503052711 | 7 | 123 | 8.0 | 8.0 | 0.00 | 0.00 | 0.00 | 66 | 1022.0 |
| 20260503051711 | 7 | 123 | 8.0 | 8.0 | 0.00 | 0.00 | 0.00 | 66 | 1022.0 |
| 20260503050710 | 7 | 123 | 8.0 | 8.0 | 0.00 | 0.00 | 0.00 | 66 | 1022.0 |
| 20260503045710 | 7 | 123 | 8.0 | 8.0 | 0.00 | 0.00 | 0.00 | 66 | 1022.0 |
| 20260503044709 | 7 | 123 | 8.0 | 8.0 | 0.00 | 0.00 | 0.00 | 66 | 1022.0 |
| 20260503043709 | 7 | 123 | 8.0 | 8.0 | 0.00 | 0.00 | 0.00 | 66 | 1022.0 |
| 20260503042708 | 7 | 123 | 8.0 | 8.0 | 0.00 | 0.00 | 0.00 | 66 | 1021.0 |
| 20260503041706 | 7 | 123 | 8.0 | 8.0 | 0.00 | 0.00 | 0.00 | 66 | 1021.0 |
| 20260503040706 | 7 | 123 | 8.0 | 8.0 | 0.00 | 0.00 | 0.00 | 66 | 1021.0 |
| 20260503035705 | 7 | 123 | 8.0 | 8.0 | 0.00 | 0.00 | 0.00 | 66 | 1021.0 |
| 20260503034705 | 7 | 123 | 8.0 | 8.0 | 0.00 | 0.00 | 0.00 | 66 | 1021.0 |
| 20260503033704 | 7 | 123 | 8.0 | 8.0 | 0.00 | 0.00 | 0.00 | 66 | 1021.0 |
| 20260503032703 | 7 | 123 | 8.0 | 8.0 | 0.00 | 0.00 | 0.00 | 66 | 1021.0 |
| 20260503031703 | 7 | 123 | 8.0 | 8.0 | 0.00 | 0.00 | 0.00 | 66 | 1021.0 |
| 20260503030702 | 7 | 123 | 8.0 | 8.0 | 0.00 | 0.00 | 0.00 | 66 | 1021.0 |
| 20260503025702 | 7 | 123 | 8.0 | 8.0 | 0.00 | 0.00 | 0.00 | 66 | 1021.0 |
| 20260503024702 | 7 | 123 | 8.0 | 8.0 | 0.00 | 0.00 | 0.00 | 66 | 1021.0 |
| 20260503023701 | 7 | 123 | 8.0 | 8.0 | 0.00 | 0.00 | 0.00 | 66 | 1021.0 |
| 20260503022700 | 7 | 123 | 8.0 | 8.0 | 0.00 | 0.00 | 0.00 | 66 | 1021.0 |
| 20260503021700 | 7 | 123 | 8.0 | 8.0 | 0.00 | 0.00 | 0.00 | 66 | 1021.0 |
| 20260503020659 | 7 | 123 | 8.0 | 8.0 | 0.00 | 0.00 | 0.00 | 66 | 1021.0 |
| 20260503015659 | 7 | 123 | 8.0 | 8.0 | 0.00 | 0.00 | 0.00 | 66 | 1021.0 |
| 20260503014658 | 7 | 123 | 8.0 | 8.0 | 0.00 | 0.00 | 0.00 | 66 | 1021.0 |
| 20260503013658 | 11 | 92 | 6.4 | 6.4 | 0.00 | 0.00 | 0.00 | 56 | 1021.0 |
| 20260503012657 | 11 | 92 | 6.4 | 6.4 | 0.00 | 0.00 | 0.00 | 56 | 1021.0 |
| 20260503011657 | 11 | 92 | 6.4 | 6.4 | 0.00 | 0.00 | 0.00 | 56 | 1021.0 |
| 20260503010656 | 11 | 92 | 6.4 | 6.4 | 0.00 | 0.00 | 0.00 | 56 | 1021.0 |
| 20260503005656 | 11 | 92 | 6.4 | 6.4 | 0.00 | 0.00 | 0.00 | 56 | 1021.0 |
| 20260503004655 | 11 | 92 | 6.4 | 6.4 | 0.00 | 0.00 | 0.00 | 56 | 1021.0 |
| 20260503003655 | 11 | 92 | 6.4 | 6.4 | 0.00 | 0.00 | 0.00 | 56 | 1021.0 |
| 20260503002654 | 11 | 92 | 6.4 | 6.4 | 0.00 | 0.00 | 0.00 | 56 | 1021.0 |
| 20260503001654 | 11 | 92 | 6.4 | 6.4 | 0.00 | 0.00 | 0.00 | 56 | 1021.0 |
| 20260503000653 | 11 | 92 | 6.4 | 6.4 | 0.00 | 0.00 | 0.00 | 56 | 1021.0 |
| 20260502235653 | 11 | 92 | 6.4 | 6.4 | 0.00 | 0.00 | 0.00 | 56 | 1021.0 |
| 20260502234652 | 11 | 92 | 6.4 | 6.4 | 0.00 | 0.00 | 0.00 | 56 | 1021.0 |
| 20260502233652 | 11 | 92 | 6.4 | 6.4 | 0.00 | 0.00 | 0.00 | 56 | 1021.0 |
| 20260502232651 | 11 | 92 | 6.4 | 6.4 | 0.00 | 0.00 | 0.00 | 56 | 1021.0 |
| 20260502231651 | 11 | 92 | 6.4 | 6.4 | 0.00 | 0.00 | 0.00 | 56 | 1021.0 |
| 20260502230650 | 11 | 92 | 6.4 | 6.4 | 0.00 | 0.00 | 0.00 | 56 | 1021.0 |
| 20260502225650 | 11 | 92 | 6.4 | 6.4 | 0.00 | 0.00 | 0.00 | 56 | 1021.0 |
| 20260502224649 | 11 | 92 | 6.4 | 6.4 | 0.00 | 0.00 | 0.00 | 56 | 1021.0 |
| 20260502223649 | 11 | 92 | 6.4 | 6.4 | 0.00 | 0.00 | 0.00 | 56 | 1021.0 |
| 20260502222648 | 11 | 92 | 6.4 | 6.4 | 0.00 | 0.00 | 0.00 | 56 | 1021.0 |
| 20260502221648 | 11 | 92 | 6.4 | 6.4 | 0.00 | 0.00 | 0.00 | 56 | 1021.0 |
| 20260502220647 | 11 | 92 | 6.4 | 6.4 | 0.00 | 0.00 | 0.00 | 56 | 1021.0 |
| 20260502215646 | 11 | 92 | 6.4 | 6.4 | 0.00 | 0.00 | 0.00 | 56 | 1021.0 |
| 20260502214645 | 11 | 92 | 6.4 | 6.4 | 0.00 | 0.00 | 0.00 | 56 | 1021.0 |
| 20260502213645 | 11 | 92 | 6.4 | 6.4 | 0.00 | 0.00 | 0.00 | 56 | 1021.0 |
| 20260502212645 | 11 | 92 | 6.4 | 6.4 | 0.00 | 0.00 | 0.00 | 56 | 1021.0 |
| 20260502211644 | 11 | 92 | 6.4 | 6.4 | 0.00 | 0.00 | 0.00 | 56 | 1021.0 |
| 20260502210644 | 11 | 92 | 6.4 | 6.4 | 0.00 | 0.00 | 0.00 | 56 | 1021.0 |
| 20260502205643 | 11 | 92 | 6.4 | 6.4 | 0.00 | 0.00 | 0.00 | 56 | 1021.0 |
| 20260502204642 | 11 | 92 | 6.4 | 6.4 | 0.00 | 0.00 | 0.00 | 56 | 1021.0 |
| 20260502203642 | 14 | 100 | 6.4 | 6.4 | 0.00 | 0.00 | 0.00 | 54 | 1021.0 |
| 20260502202641 | 14 | 100 | 6.4 | 6.4 | 0.00 | 0.00 | 0.00 | 54 | 1021.0 |
| 20260502201641 | 14 | 100 | 6.4 | 6.4 | 0.00 | 0.00 | 0.00 | 54 | 1021.0 |
| 20260502200640 | 14 | 100 | 6.4 | 6.4 | 0.00 | 0.00 | 0.00 | 54 | 1021.0 |
| 20260502195640 | 14 | 100 | 6.4 | 6.4 | 0.00 | 0.00 | 0.00 | 54 | 1021.0 |